Location: Bothell
(47.7630°N, 122.2040°W)
Time: 00:02:10
(UTC-07:00)

Amateur Radio Satellites - All Passes

Search period start: 23 June 2017 23:32
Search period end: 24 June 2017 23:32
Location: Bothell, 47.7630°N, 122.2040°W

Satellite Date Start Highest point End Downlink Frequencies (MHz)
Time Altitude Azimuth
M-CUBED/EXP-1 PRIME 23 Jun 23:32:22 23:35:51 48° 294° (WNW) 23:39:34 437.505
ESTCUBE 1 23 Jun 23:35:43 23:40:14 77° 73° (ENE) 23:44:44 437.505/2401.250
RS-15 23 Jun 23:37:13 23:49:25 65° 318° (NW) 00:01:43 29.354- 29.394
BEESAT 3 23 Jun 23:37:42 23:41:11 27° 320° (NW) 23:44:42 437.485
SO-50 23 Jun 23:37:50 23:42:22 82° 51° (NE) 23:46:56 436.795
PRISM 23 Jun 23:38:08 23:42:10 62° 288° (WNW) 23:46:14 437.425
QB50P2 23 Jun 23:40:40 23:41:42 11° 87° (E) 23:42:44 145.880/145.840
VELOX 1 23 Jun 23:46:29 23:50:12 28° 65° (ENE) 23:53:56 145.980
FO-29 23 Jun 23:49:05 23:56:41 63° 291° (WNW) 00:04:24 435.910
UNISAT 6 23 Jun 23:52:22 23:56:55 49° 290° (WNW) 00:01:21 437.425
YUBILEINY 23 Jun 23:58:48 00:07:15 49° 289° (WNW) 00:15:48 435.215
NO-84 24 Jun 00:01:08 00:05:14 82° 327° (NNW) 00:09:36 435.350 FM
LO-87 24 Jun 00:02:57 00:06:04 28° 264° (W) 00:09:11 145.935 - 145.965
EO-79 24 Jun 00:04:16 00:07:12 18° 91° (E) 00:10:07 145.935-145.965
50 SAT 24 Jun 00:06:46 00:09:00 17° 64° (ENE) 00:11:15 437.505
AO-85 24 Jun 00:08:47 00:10:52 14° 332° (NNW) 00:12:56 145.980
DX 1 24 Jun 00:12:57 00:16:02 19° 61° (ENE) 00:19:08 434.975-435.025
DUCHIFAT 1 24 Jun 00:20:20 00:23:35 21° 92° (E) 00:26:49 145.980
SPROUT 24 Jun 00:21:14 00:25:27 62° 73° (ENE) 00:29:42 437.525
NANOSAT C BR1 24 Jun 00:27:31 00:31:11 27° 95° (E) 00:34:50 145.865
BEESAT 2 24 Jun 00:32:35 00:35:52 23° 323° (NW) 00:39:12 435.950
UKube-1 24 Jun 00:33:44 00:37:00 21° 62° (ENE) 00:40:16 .
TIGRISAT 24 Jun 00:48:21 00:51:33 18° 300° (WNW) 00:54:42 435.000
POLYITAN 1 24 Jun 01:03:03 01:07:21 69° 102° (ESE) 01:11:37 437.675
AIST 2D 24 Jun 01:04:08 01:07:30 43° 288° (WNW) 01:10:50 435.315
QB50P2 24 Jun 01:13:47 01:18:06 85° 283° (WNW) 01:22:22 145.880/145.840
ESTCUBE 1 24 Jun 01:15:32 01:17:35 13° 272° (W) 01:19:38 437.505/2401.250
SO-50 24 Jun 01:19:44 01:22:13 15° 250° (WSW) 01:24:44 436.795
VELOX 1 24 Jun 01:22:33 01:26:33 34° 263° (W) 01:30:35 145.980
FO-29 24 Jun 01:35:40 01:40:21 18° 311° (NW) 01:45:07 435.910
BUGSAT 1 24 Jun 01:37:16 01:41:20 41° 98° (E) 01:45:20 437.445
Oscar 19 24 Jun 01:38:22 01:41:59 19° 91° (E) 01:45:34 437.125/150
50 SAT 24 Jun 01:38:27 01:41:34 35° 262° (W) 01:44:42 437.505
EO-79 24 Jun 01:39:06 01:43:16 51° 289° (WNW) 01:47:24 145.935-145.965
NO-84 24 Jun 01:39:24 01:43:18 34° 349° (N) 01:47:20 435.350 FM
DX 1 24 Jun 01:47:40 01:51:52 52° 259° (W) 01:56:07 434.975-435.025
RS-15 24 Jun 01:53:40 02:04:51 37° 349° (N) 02:15:53 29.354- 29.394
DUCHIFAT 1 24 Jun 01:55:24 01:59:27 42° 290° (WNW) 02:03:27 145.980
SPROUT 24 Jun 01:59:20 02:01:46 15° 271° (W) 02:04:13 437.525
NANOSAT C BR1 24 Jun 02:03:05 02:06:54 33° 293° (WNW) 02:10:44 145.865
YUBILEINY 24 Jun 02:03:23 02:06:48 12° 315° (NW) 02:10:14 435.215
UKube-1 24 Jun 02:08:37 02:12:45 45° 260° (W) 02:16:54 .
Gurwin Techsat 1B 24 Jun 02:16:47 02:21:16 27° 93° (E) 02:25:44 435.225
POLYITAN 1 24 Jun 02:40:09 02:42:37 15° 301° (WNW) 02:45:05 437.675
MOZHAYETS 4 24 Jun 02:40:57 02:44:52 28° 65° (ENE) 02:48:48
ITUPSAT 1 24 Jun 02:42:42 02:47:16 44° 68° (ENE) 02:51:51 437.325
QB50P2 24 Jun 02:51:48 02:53:11 11° 303° (WNW) 02:54:32 145.880/145.840
BEESAT 24 Jun 02:53:46 02:58:26 56° 70° (ENE) 03:03:09 436.000
BUGSAT 1 24 Jun 03:13:06 03:16:27 23° 296° (WNW) 03:19:47 437.445
Oscar 19 24 Jun 03:16:40 03:21:45 64° 289° (WNW) 03:26:48 437.125/150
NO-84 24 Jun 03:17:44 03:21:43 34° 10° (N) 03:25:45 435.350 FM
CUBESAT XI-V 24 Jun 03:18:49 03:21:24 15° 58° (ENE) 03:23:58 437.345
AO-7 24 Jun 03:21:10 03:27:06 21° 89° (E) 03:33:00 .
AO-85 24 Jun 03:34:22 03:35:29 11° 23° (NNE) 03:36:38 145.980
ITAMSAT 1 24 Jun 03:50:38 03:55:00 26° 94° (E) 03:59:19 435.822/435.867
Gurwin Techsat 1B 24 Jun 03:56:21 04:01:27 48° 292° (WNW) 04:06:32 435.225
RS-15 24 Jun 04:09:49 04:21:23 42° 23° (NNE) 04:32:30 29.354- 29.394
MOZHAYETS 4 24 Jun 04:17:33 04:21:53 38° 263° (W) 04:26:15
ITUPSAT 1 24 Jun 04:21:19 04:25:16 25° 266° (W) 04:29:15 437.325
KKS-1 24 Jun 04:26:41 04:30:51 42° 69° (ENE) 04:35:04 437.445
BEESAT 24 Jun 04:33:07 04:36:34 20° 269° (W) 04:40:02 436.000
BEESAT 3 24 Jun 04:36:24 04:38:59 16° 31° (NNE) 04:41:33 437.485
CUBESAT XI-V 24 Jun 04:53:31 04:58:10 80° 258° (WSW) 05:02:49 437.345
NO-84 24 Jun 04:55:25 04:59:50 77° 31° (NNE) 05:04:10 435.350 FM
Oscar 19 24 Jun 04:58:33 05:00:06 11° 308° (NW) 05:01:38 437.125/150
STARS 24 Jun 05:01:12 05:05:19 42° 69° (ENE) 05:09:29 437.465
AO-7 24 Jun 05:12:35 05:21:02 86° 110° (ESE) 05:29:26 .
AO-85 24 Jun 05:13:06 05:16:56 40° 45° (NE) 05:20:57 145.980
ITAMSAT 1 24 Jun 05:29:39 05:34:41 49° 292° (WNW) 05:39:43 435.822/435.867
BEESAT 2 24 Jun 05:31:17 05:34:16 19° 34° (NNE) 05:37:13 435.950
DOVE 4 24 Jun 05:48:15 05:51:50 20° 91° (E) 05:55:31 437.250
KKS-1 24 Jun 06:04:06 06:07:36 23° 267° (W) 06:11:08 437.445
BEESAT 3 24 Jun 06:13:11 06:17:14 78° 52° (NE) 06:21:13 437.485
O/OREOS (USA 219) 24 Jun 06:19:31 06:22:00 14° 44° (NE) 06:24:27 437.305
CUTE-I 24 Jun 06:22:07 06:25:45 18° 89° (E) 06:29:21 437.470
RS-15 24 Jun 06:23:21 06:35:42 87° 52° (NE) 06:47:25 29.354- 29.394
STRAND 1 24 Jun 06:26:34 06:30:39 24° 61° (ENE) 06:34:45 437.568
NO-84 24 Jun 06:33:34 06:37:05 24° 229° (SW) 06:40:31 435.350 FM
STARS 24 Jun 06:38:23 06:41:50 22° 267° (W) 06:45:20 437.465
NUDT-PHONESAT 24 Jun 06:41:28 06:44:10 19° 92° (E) 06:46:50 437.300
XW-2F 24 Jun 06:51:28 06:54:50 30° 96° (E) 06:58:09 145.980 - 146.000
AO-85 24 Jun 06:53:41 06:57:12 27° 243° (WSW) 07:00:52 145.980
XW-2D 24 Jun 06:54:13 06:57:43 35° 97° (E) 07:01:10 145.860 - 145.880
LilacSat-2 24 Jun 07:00:25 07:04:04 42° 98° (E) 07:07:40 437.200
XW-2B 24 Jun 07:03:05 07:06:43 42° 98° (E) 07:10:17 145.730 - 145.750
HO-68 24 Jun 07:03:44 07:07:51 16° 86° (E) 07:11:57 435.675
AO-7 24 Jun 07:06:11 07:12:56 29° 311° (NW) 07:19:42 .
BEESAT 2 24 Jun 07:08:26 07:12:32 81° 234° (SW) 07:16:34 435.950
XW-2C 24 Jun 07:18:23 07:22:11 66° 102° (ESE) 07:25:55 145.795 - 145.815
CUTE 1.7 + AOD 2 24 Jun 07:19:22 07:20:59 12° 87° (E) 07:22:37 437.475
DOVE 4 24 Jun 07:25:05 07:29:48 58° 288° (WNW) 07:34:45 437.250
KAITUO 1B 24 Jun 07:36:31 07:40:16 84° 103° (ESE) 07:43:58 145.475/437.950
BEESAT 3 24 Jun 07:52:26 07:54:14 13° 250° (WSW) 07:56:00 437.485
XW-2A 24 Jun 07:55:53 07:58:18 18° 93° (E) 08:00:41 145.665 - 145.685
O/OREOS (USA 219) 24 Jun 07:57:38 08:02:09 85° 69° (ENE) 08:06:37 437.305
CUTE-I 24 Jun 08:00:58 08:06:21 72° 288° (WNW) 08:11:42 437.470
STRAND 1 24 Jun 08:04:28 08:09:29 54° 260° (W) 08:14:34 437.568
YUBILEINY 24 Jun 08:07:56 08:15:11 27° 60° (ENE) 08:22:21 435.215
NUDT-PHONESAT 24 Jun 08:14:46 08:18:11 35° 290° (WNW) 08:21:35 437.300
FO-29 24 Jun 08:21:51 08:26:25 21° 52° (NE) 08:31:21 435.910
XW-2F 24 Jun 08:25:49 08:28:51 23° 294° (WNW) 08:31:51 145.980 - 146.000
XW-2D 24 Jun 08:28:50 08:31:42 21° 295° (WNW) 08:34:33 145.860 - 145.880
LilacSat-2 24 Jun 08:35:26 08:38:03 18° 296° (WNW) 08:40:39 437.200
RS-15 24 Jun 08:36:54 08:46:44 31° 257° (WSW) 08:56:14 29.354- 29.394
XW-2B 24 Jun 08:38:01 08:40:36 18° 296° (WNW) 08:43:10 145.730 - 145.750
SEEDS 24 Jun 08:38:38 08:42:42 51° 99° (E) 08:46:45 437.485
TIGRISAT 24 Jun 08:38:50 08:40:44 12° 56° (NE) 08:42:38 435.000
M-CUBED/EXP-1 PRIME 24 Jun 08:47:52 08:50:47 30° 63° (ENE) 08:53:42 437.505
CUBEBUG 2 24 Jun 08:48:35 08:53:16 54° 99° (E) 08:57:49 437.445
HO-68 24 Jun 08:49:30 08:56:45 78° 106° (ESE) 09:03:55 435.675
AO-73 24 Jun 08:50:33 08:53:42 19° 90° (E) 08:56:49 145.935
CUTE 1.7 + AOD 2 24 Jun 08:53:09 08:57:21 74° 286° (WNW) 09:01:32 437.475
XW-2C 24 Jun 08:54:12 08:55:52 13° 300° (WNW) 08:57:31 145.795 - 145.815
PRISM 24 Jun 08:56:48 08:59:23 17° 61° (ENE) 09:01:59 437.425
UNISAT 6 24 Jun 09:18:02 09:21:57 28° 65° (ENE) 09:25:57 437.425
Oscar 11 24 Jun 09:19:07 09:22:48 27° 94° (E) 09:26:27 .
ZACube-1 24 Jun 09:23:54 09:28:13 43° 98° (E) 09:32:25 437.345
UWE-3 24 Jun 09:25:28 09:30:08 77° 102° (ESE) 09:34:39 435.000/436.395/437.385
XW-2A 24 Jun 09:28:03 09:31:08 32° 290° (WNW) 09:34:11 145.665 - 145.685
AAUSAT CUBESAT 2 24 Jun 09:34:04 09:38:12 85° 288° (WNW) 09:42:19 437.432
O/OREOS (USA 219) 24 Jun 09:39:21 09:40:49 11° 263° (W) 09:42:17 437.305
DELFI C3 24 Jun 09:40:41 09:42:12 12° 88° (E) 09:43:43 145.870
Tancredo 1 24 Jun 09:41:08 09:44:02 43° 147° (SSE) 09:46:57 437.200
CUTE-I 24 Jun 09:42:57 09:45:29 14° 307° (NW) 09:48:02 437.470
ISS 24 Jun 09:43:20 09:46:10 27° 142° (SE) 09:49:00 437.550
YUBILEINY 24 Jun 10:04:13 10:13:05 82° 264° (W) 10:21:53 435.215
FO-29 24 Jun 10:04:20 10:10:26 90° 113° (ESE) 10:17:27 435.910
AIST 2D 24 Jun 10:11:46 10:11:56 10° 60° (ENE) 10:12:05 435.315
TIGRISAT 24 Jun 10:12:01 10:16:37 81° 74° (ENE) 10:21:20 435.000
SEEDS 24 Jun 10:15:11 10:18:02 18° 298° (WNW) 10:20:53 437.485
M-CUBED/EXP-1 PRIME 24 Jun 10:23:05 10:25:22 17° 260° (W) 10:27:38 437.505
AO-73 24 Jun 10:25:54 10:30:16 51° 289° (WNW) 10:34:30 145.935
CUBEBUG 2 24 Jun 10:25:55 10:29:29 21° 298° (WNW) 10:33:00 437.445
POLYITAN 1 24 Jun 10:26:39 10:27:36 11° 56° (NE) 10:28:33 437.675
PRISM 24 Jun 10:30:18 10:34:16 55° 259° (W) 10:38:17 437.425
QB50P2 24 Jun 10:35:56 10:38:10 14° 59° (ENE) 10:40:26 145.880/145.840
HO-68 24 Jun 10:38:04 10:43:48 27° 306° (NW) 10:49:31 435.675
UNISAT 6 24 Jun 10:54:13 10:58:30 38° 263° (W) 11:02:54 437.425
Oscar 11 24 Jun 10:55:05 10:58:58 33° 292° (WNW) 11:02:50 .
EO-88 24 Jun 10:58:45 11:02:22 57° 101° (E) 11:05:57 145.990 - 145.960
EO-79 24 Jun 10:59:46 11:03:00 21° 63° (ENE) 11:06:14 145.935-145.965
ZACube-1 24 Jun 11:00:39 11:04:15 24° 296° (WNW) 11:07:45 437.345
UWE-3 24 Jun 11:03:16 11:05:58 15° 301° (WNW) 11:08:37 435.000/436.395/437.385
AAUSAT CUBESAT 2 24 Jun 11:12:09 11:12:58 11° 303° (WNW) 11:13:48 437.432
DELFI C3 24 Jun 11:13:30 11:17:25 66° 285° (WNW) 11:21:19 145.870
DUCHIFAT 1 24 Jun 11:15:09 11:18:35 24° 64° (ENE) 11:22:02 145.980
Tancredo 1 24 Jun 11:16:40 11:19:38 48° 347° (NNW) 11:22:37 437.200
ISS 24 Jun 11:19:11 11:22:28 68° 341° (NNW) 11:25:45 437.550
NANOSAT C BR1 24 Jun 11:22:32 11:26:17 31° 67° (ENE) 11:30:04 145.865
ESTCUBE 1 24 Jun 11:26:28 11:28:28 13° 88° (E) 11:30:26 437.505/2401.250
LO-87 24 Jun 11:26:38 11:29:10 18° 92° (E) 11:31:41 145.935 - 145.965
AIST 2D 24 Jun 11:41:01 11:44:34 76° 258° (WSW) 11:48:09 435.315
TIGRISAT 24 Jun 11:51:47 11:53:55 13° 273° (W) 11:56:05 435.000
FO-29 24 Jun 11:52:43 11:56:40 17° 277° (W) 12:00:55 435.910
POLYITAN 1 24 Jun 11:58:21 12:02:37 79° 76° (ENE) 12:06:57 437.675
YUBILEINY 24 Jun 12:02:49 12:08:27 19° 286° (WNW) 12:14:06 435.215
Gurwin Techsat 1B 24 Jun 12:05:57 12:07:18 11° 50° (NE) 12:08:39 435.225
QB50P2 24 Jun 12:09:08 12:13:24 75° 257° (WSW) 12:17:42 145.880/145.840
PCSat 24 Jun 12:19:01 12:23:34 28° 110° (ESE) 12:28:10 145.827
BUGSAT 1 24 Jun 12:29:50 12:33:46 44° 70° (ENE) 12:37:46 437.445
EO-88 24 Jun 12:33:48 12:35:36 13° 298° (WNW) 12:37:23 145.990 - 145.960
EO-79 24 Jun 12:34:24 12:38:28 44° 261° (W) 12:42:36 145.935-145.965
AO-7 24 Jun 12:36:57 12:40:28 13° 32° (NNE) 12:43:59 .
DUCHIFAT 1 24 Jun 12:50:08 12:54:05 37° 263° (W) 12:58:04 145.980
Tancredo 1 24 Jun 12:52:40 12:55:35 39° 7° (N) 12:58:29 437.200
ISS 24 Jun 12:56:07 12:59:16 40° 0° (N) 13:02:25 437.550
Oscar 19 24 Jun 12:58:04 13:02:49 39° 66° (ENE) 13:07:36 437.125/150
NANOSAT C BR1 24 Jun 12:58:19 13:01:59 28° 265° (W) 13:05:43 145.865
LO-87 24 Jun 12:59:21 13:02:45 37° 290° (WNW) 13:06:07 145.935 - 145.965
50 SAT 24 Jun 12:59:44 13:00:02 10° 89° (E) 13:00:19 437.505
ESTCUBE 1 24 Jun 13:01:20 13:05:49 78° 287° (WNW) 13:10:18 437.505/2401.250
VELOX 1 24 Jun 13:08:38 13:12:39 33° 96° (E) 13:16:40 145.980
DX 1 24 Jun 13:32:47 13:36:05 21° 93° (E) 13:39:23 434.975-435.025
POLYITAN 1 24 Jun 13:37:25 13:38:58 12° 273° (W) 13:40:30 437.675
ITAMSAT 1 24 Jun 13:37:53 13:38:21 10° 50° (NE) 13:38:49 435.822/435.867
SPROUT 24 Jun 13:39:05 13:43:25 75° 103° (ESE) 13:47:43 437.525
Gurwin Techsat 1B 24 Jun 13:40:58 13:46:10 59° 70° (ENE) 13:51:24 435.225
UKube-1 24 Jun 13:52:25 13:55:50 22° 94° (E) 13:59:13 .
SO-50 24 Jun 13:58:49 13:59:48 11° 108° (ESE) 14:00:47 436.795
PCSat 24 Jun 14:01:23 14:06:41 54° 310° (NW) 14:12:03 145.827
BUGSAT 1 24 Jun 14:06:19 14:09:21 20° 268° (W) 14:12:26 437.445
AO-7 24 Jun 14:23:25 14:31:02 42° 56° (ENE) 14:38:42 .
Tancredo 1 24 Jun 14:28:18 14:31:21 78° 206° (SSW) 14:34:24 437.200
50 SAT 24 Jun 14:29:50 14:33:11 58° 287° (WNW) 14:36:32 437.505
ISS 24 Jun 14:32:45 14:36:03 72° 21° (NNE) 14:39:21 437.550
Oscar 19 24 Jun 14:37:39 14:42:13 31° 265° (W) 14:46:48 437.125/150
ESTCUBE 1 24 Jun 14:40:33 14:41:51 11° 304° (NW) 14:43:08 437.505/2401.250
VELOX 1 24 Jun 14:45:12 14:49:02 29° 294° (WNW) 14:52:51 145.980
BEESAT 24 Jun 14:53:02 14:54:08 11° 86° (E) 14:55:13 436.000
DX 1 24 Jun 15:08:19 15:12:30 45° 291° (WNW) 15:16:39 434.975-435.025
ITAMSAT 1 24 Jun 15:11:38 15:16:42 55° 69° (ENE) 15:21:49 435.822/435.867
SPROUT 24 Jun 15:16:28 15:18:46 14° 301° (WNW) 15:21:03 437.525
Gurwin Techsat 1B 24 Jun 15:22:27 15:26:31 22° 269° (W) 15:30:35 435.225
UKube-1 24 Jun 15:27:56 15:32:01 41° 291° (WNW) 15:36:04 .
SO-50 24 Jun 15:34:55 15:39:28 77° 126° (SE) 15:44:00 436.795
PCSat 24 Jun 15:48:00 15:51:21 16° 333° (NNW) 15:54:42 145.827
Tancredo 1 24 Jun 16:04:51 16:06:31 14° 223° (SW) 16:08:11 437.200
MOZHAYETS 4 24 Jun 16:08:46 16:13:05 38° 97° (E) 16:17:20
ISS 24 Jun 16:09:32 16:12:19 25° 219° (SW) 16:15:05 437.550
AO-7 24 Jun 16:15:28 16:23:35 56° 257° (WSW) 16:31:49 .
ITUPSAT 1 24 Jun 16:17:05 16:21:53 65° 102° (ESE) 16:26:37 437.325
BEESAT 24 Jun 16:27:51 16:32:40 83° 104° (ESE) 16:37:27 436.000
CUBESAT XI-V 24 Jun 16:47:17 16:50:39 20° 91° (E) 16:53:59 437.345
ITAMSAT 1 24 Jun 16:52:27 16:56:30 23° 268° (W) 17:00:36 435.822/435.867
DOVE 4 24 Jun 16:57:29 17:00:53 24° 64° (ENE) 17:04:23 437.250
SO-50 24 Jun 17:16:49 17:20:25 23° 326° (NNW) 17:24:02 436.795
NUDT-PHONESAT 24 Jun 17:24:23 17:26:42 16° 63° (ENE) 17:29:02 437.300
XW-2F 24 Jun 17:35:32 17:38:42 25° 67° (ENE) 17:41:52 145.980 - 146.000
HO-68 24 Jun 17:36:36 17:41:35 21° 49° (NE) 17:46:34 435.675
XW-2D 24 Jun 17:38:33 17:41:53 29° 68° (ENE) 17:45:13 145.860 - 145.880
LilacSat-2 24 Jun 17:45:16 17:48:48 35° 69° (ENE) 17:52:20 437.200
MOZHAYETS 4 24 Jun 17:46:13 17:50:05 27° 295° (WNW) 17:53:56
CUTE-I 24 Jun 17:46:47 17:51:44 40° 66° (ENE) 17:56:43 437.470
XW-2B 24 Jun 17:47:20 17:50:49 34° 69° (ENE) 17:54:19 145.730 - 145.750
KKS-1 24 Jun 17:50:12 17:54:37 52° 100° (E) 17:58:59 437.445
ITUPSAT 1 24 Jun 17:55:53 17:59:14 19° 301° (WNW) 18:02:33 437.325
XW-2C 24 Jun 18:02:28 18:06:12 51° 73° (ENE) 18:09:57 145.795 - 145.815
BEESAT 24 Jun 18:07:03 18:09:48 15° 303° (WNW) 18:12:34 436.000
CUTE 1.7 + AOD 2 24 Jun 18:15:07 18:17:29 15° 60° (ENE) 18:19:49 437.475
AO-7 24 Jun 18:16:23 18:18:18 11° 279° (W) 18:20:12 .
CUBEBUG 2 24 Jun 18:17:44 18:18:12 10° 54° (NE) 18:18:40 437.445
KAITUO 1B 24 Jun 18:19:15 18:22:59 62° 74° (ENE) 18:26:44 145.475/437.950
STARS 24 Jun 18:22:55 18:27:16 50° 100° (E) 18:31:34 437.465
CUBESAT XI-V 24 Jun 18:23:52 18:28:19 51° 289° (WNW) 18:32:46 437.345
XW-2A 24 Jun 18:31:28 18:32:52 12° 62° (ENE) 18:34:15 145.665 - 145.685
DOVE 4 24 Jun 18:34:36 18:38:26 35° 264° (W) 18:42:25 437.250
UWE-3 24 Jun 18:51:37 18:53:52 13° 57° (ENE) 18:56:07 435.000/436.395/437.385
AAUSAT CUBESAT 2 24 Jun 18:54:44 18:56:13 12° 58° (ENE) 18:57:42 437.432
NUDT-PHONESAT 24 Jun 18:56:36 19:00:14 49° 260° (W) 19:03:55 437.300
XW-2F 24 Jun 19:09:22 19:12:44 29° 264° (W) 19:16:08 145.980 - 146.000
XW-2D 24 Jun 19:12:50 19:16:03 25° 265° (W) 19:19:18 145.860 - 145.880
PCSat 24 Jun 19:19:54 19:23:09 16° 26° (NNE) 19:26:22 145.827
LilacSat-2 24 Jun 19:20:11 19:23:11 21° 267° (W) 19:26:11 437.200
HO-68 24 Jun 19:21:05 19:28:17 80° 69° (ENE) 19:35:31 435.675
XW-2B 24 Jun 19:22:06 19:25:06 21° 267° (W) 19:28:05 145.730 - 145.750
CUTE-I 24 Jun 19:27:07 19:31:51 32° 265° (W) 19:36:39 437.470
KKS-1 24 Jun 19:27:32 19:30:49 20° 299° (WNW) 19:34:06 437.445
SEEDS 24 Jun 19:33:06 19:37:11 53° 72° (ENE) 19:41:17 437.485
XW-2C 24 Jun 19:38:30 19:40:42 15° 270° (W) 19:42:54 145.795 - 145.815
CUTE 1.7 + AOD 2 24 Jun 19:48:32 19:52:47 70° 257° (WSW) 19:57:02 437.475
AO-73 24 Jun 19:48:49 19:52:25 24° 64° (ENE) 19:56:03 145.935
CUBEBUG 2 24 Jun 19:49:17 19:53:51 65° 73° (ENE) 19:58:33 437.445
KAITUO 1B 24 Jun 19:55:55 19:57:23 12° 271° (W) 19:58:51 145.475/437.950
STARS 24 Jun 19:59:58 20:03:17 21° 298° (WNW) 20:06:35 437.465
XW-2A 24 Jun 20:01:46 20:05:10 57° 260° (W) 20:08:35 145.665 - 145.685
STRAND 1 24 Jun 20:11:25 20:16:16 40° 97° (E) 20:21:05 437.568
Oscar 11 24 Jun 20:16:51 20:20:43 32° 67° (ENE) 20:24:35 .
ZACube-1 24 Jun 20:22:15 20:26:40 51° 71° (ENE) 20:31:08 437.345
UWE-3 24 Jun 20:24:59 20:29:35 89° 84° (E) 20:34:18 435.000/436.395/437.385
AAUSAT CUBESAT 2 24 Jun 20:26:55 20:31:02 86° 252° (WSW) 20:35:12 437.432
DELFI C3 24 Jun 20:29:47 20:31:20 12° 59° (ENE) 20:32:53 145.870
SO-50 24 Jun 20:43:34 20:45:08 11° 16° (NNE) 20:46:41 436.795
RS-15 24 Jun 20:50:34 21:01:24 40° 107° (ESE) 21:12:23 29.354- 29.394
PCSat 24 Jun 21:02:33 21:07:51 51° 49° (NE) 21:13:08 145.827
SEEDS 24 Jun 21:10:31 21:13:12 16° 270° (W) 21:15:53 437.485
AO-85 24 Jun 21:10:57 21:14:40 35° 120° (ESE) 21:18:17 145.980
FO-29 24 Jun 21:11:16 21:15:28 15° 82° (E) 21:19:39 435.910
HO-68 24 Jun 21:11:19 21:16:47 23° 270° (W) 21:22:16 435.675
YUBILEINY 24 Jun 21:14:53 21:21:37 26° 78° (ENE) 21:28:23 435.215
AO-73 24 Jun 21:24:01 21:28:22 45° 262° (W) 21:32:49 145.935
CUBEBUG 2 24 Jun 21:28:02 21:30:56 16° 272° (W) 21:33:54 437.445
EO-88 24 Jun 21:39:26 21:42:54 40° 71° (ENE) 21:46:22 145.990 - 145.960
BEESAT 3 24 Jun 21:42:53 21:46:39 43° 121° (ESE) 21:50:29 437.485
STRAND 1 24 Jun 21:50:48 21:55:21 32° 296° (WNW) 21:59:52 437.568
Oscar 11 24 Jun 21:53:04 21:56:51 29° 265° (W) 22:00:39 .
NO-84 24 Jun 21:53:07 21:55:41 17° 127° (SE) 21:58:22 435.350 FM
M-CUBED/EXP-1 PRIME 24 Jun 21:57:03 21:59:05 14° 98° (E) 22:01:11 437.505
ZACube-1 24 Jun 21:59:51 22:03:14 20° 269° (W) 22:06:38 437.345
TIGRISAT 24 Jun 22:01:37 22:04:09 14° 88° (E) 22:06:38 435.000
DELFI C3 24 Jun 22:01:38 22:05:32 75° 258° (WSW) 22:09:29 145.870
UWE-3 24 Jun 22:05:05 22:06:43 12° 274° (W) 22:08:22 435.000/436.395/437.385
LO-87 24 Jun 22:06:51 22:08:35 13° 62° (ENE) 22:10:19 145.935 - 145.965
PRISM 24 Jun 22:09:05 22:11:32 15° 91° (E) 22:14:00 437.425
O/OREOS (USA 219) 24 Jun 22:13:06 22:17:30 51° 110° (ESE) 22:21:54 437.305
SO-50 24 Jun 22:22:56 22:26:59 31° 39° (NE) 22:31:03 436.795
ESTCUBE 1 24 Jun 22:28:44 22:31:54 19° 61° (ENE) 22:35:03 437.505/2401.250
BEESAT 2 24 Jun 22:39:41 22:43:37 59° 124° (ESE) 22:47:37 435.950
UNISAT 6 24 Jun 22:42:11 22:46:31 37° 96° (E) 22:50:47 437.425
PCSat 24 Jun 22:46:20 22:51:02 30° 249° (WSW) 22:55:42 145.827
AO-85 24 Jun 22:51:32 22:55:05 30° 319° (NW) 22:58:35 145.980
FO-29 24 Jun 22:54:02 23:01:48 67° 101° (ESE) 23:09:35 435.910
RS-15 24 Jun 23:00:50 23:13:07 75° 312° (NW) 23:25:33 29.354- 29.394
SPROUT 24 Jun 23:02:53 23:04:18 11° 57° (ENE) 23:05:43 437.525
YUBILEINY 24 Jun 23:08:36 23:17:25 80° 279° (W) 23:26:21 435.215
EO-88 24 Jun 23:14:21 23:16:46 17° 268° (W) 23:19:11 145.990 - 145.960
BEESAT 3 24 Jun 23:20:54 23:24:22 28° 320° (NW) 23:27:53 437.485
